Find Cartosat-1

NORAD ID: 28649 Int'l Des: 2005-017 Owner: ISRO Country: IN operational
LEOCIRCULARRETROGRADESSO

Live-Position

3D-Globus wird geladen...

Über Cartosat-1

Beschreibung wird geladen...

Nächste Überflüge

Passes for default location (London). Set your location on the main map for personalized predictions.

Höhenverlauf

Loading altitude history...

Zweizeiliger Elementsatz

1 28649U 05017A 26106.80480446 .00000852 00000-0 91688-4 0 9992
2 28649 97.5366 132.6460 0000606 103.7602 256.3685 14.90890570134679
Epoch: 16. Apr. 2026 • Age: 14 hours

Aktueller Status

Höhe 597.3 km
Geschwindigkeit 7.56 km/s
Subsatellitenpunkt 11.41°N, 25.11°W
Startdatum 5. Mai 2005
Alter 20.9 years
Typ other

Technische Details

Klassifizierung Payload
Masse 1560.00 kg
Trockenmasse 1560.00 kg
Gesamtmasse 1560.00 kg
Länge 2.80 m
Durchmesser 2.00 m
Spannweite 12.00 m
Form Box + 2 Pan
Hersteller ISRO
Bus-Typ IRS
Phasenstatus In Orbit
Besitzer/Staat ISRO/IN

Most Searched